ONEWEB-0117, 47263

Orbit data source: Space-Track

ONEWEB-0117, 47263 is a payload satellite owned by One Web (UK) in LEO that was launched on Fri, 18 Dec 2020 UTC via a SOYUZ-2-1B launch vehicle from the Vostochny Cosmodrome (VOSTO). Payload-class satellites include a variety of spacecraft equipped with specific instruments for various scientific and technological missions. These include communications satellites like Starlink; space stations such as the ISS; scientific satellites like the Hubble; Earth observation satellites from companies like Planet Labs, Umbra, and HawkEye 360; GPS; miniature CubeSats for education and research; and military/defense satellites.

Loading next visibility...
Identifier
47263, 2020-100F
Orbit
LEO
Country
Flag of UKUK
Related business
Manufacturer
One Web
Mission
Operational Commercial Communications
Bus & Motor
ARROW, Unknown motor
Mass
148 kg wet, ~140 kg dry
Launch date (UTC)
2020-12-18 (6 years ago)
Launch vehicle
SOYUZ-2-1B
Launch site
Vostochny Cosmodrome (VOSTO)
Object type
Payload
Rocket body
Debris
Shape & HBR
Trap Box + 2 Pan, 6.7 m
Radar Cross Section
3.464 m², Large (>1 m²)

Expand to show TLE details & history
Last TLE update: 2 days ago

TLE from 2 days ago
0 ONEWEB-0117
1 47263U 20100F   26170.96659521  .00000068  00000-0  15466-3 0  9993
2 47263  87.8947 350.0971 0001771  92.1126 268.0205 13.12442570264890
Epoch: 2026-06-19T23:11Z
TLE epoch observation values (Epoch: 2026-06-19T23:11:53.826Z)
Latitude
-0.00004°
Longitude
93.93484°
Altitude
1,216.662 km
Speed
7.246 km/s
True Right ascension
23h 20m 23s
True Declination
0° 00' 00"
Sunlit
Object was in daylight at epoch
Visualization orbit readout
Latitude
Unknown
Longitude
Unknown
Altitude
Unknown
Speed
Unknown
Apparent Right ascension
Unknown
Apparent Declination
Unknown
Sunlit
N/A
Visualization observer readout
Local Sidereal Time
21:35:51
Azimuth
Unknown
Elevation
Unknown
Doppler factor
Unknown
Orbital elements
Apogee altitude
1,212.186 km
Perigee altitude
1,209.498 km
Semi-major axis
7,588.979 km
Eccentricity
0.00018
Inclination
87.8947°
RAAN
350.0971°
Arg. of periapsis
92.1126°
True anomaly
268.00022°
Mean anomaly
268.0205°
Eccentric anomaly
268.01036°
Mean motion
3.28298 °/min
Orbital period
109.66 mins
BSTAR
0.00015466
Loading maneuver chart data...
Computing Atmospheric mass density...
Loading historical data...
Loading historical data...
Loading historical data...
Loading historical data...
Loading historical data...
Loading historical data...
Loading historical data...

Documentation

Showing up to 5 results
|